Flag for Lebanon Weather past 2 weeks in Sidon, Lebanon

Now
57 °F

Passing clouds.


Feels Like: 56 °F
Forecast: 63 / 68 °F
Wind: 7 mph from South

Location: Beirut Airport

Current Time: Mar 2, 2015 at 2:27:22 AM

Latest Report: Mar 2, 2015 at 2:00 AM


Visibility: 5 mi

Pressure: 30.07 "Hg

Humidity: 77%

Dew point: 50 °F

Location of SidonLocation

Historic Weather in Sidon — Graph

°F

Sidon temperature yesterday

Maximum temperature yesterday: 64 °F (at 11:00 AM)
Minimum temperature yesterday: 57 °F (at 6:00 AM)
Average temperature yesterday: 61 °F

Past Weeks' High & Low Weather Summary

 TemperatureHumidityPressure
High77 °F (Feb 27, 3:00 PM)88% (Feb 25, 4:00 AM)30.24 "Hg (Feb 25, 4:00 AM)
Low41 °F (Feb 20, 10:00 AM)19% (Feb 27, 3:00 PM)29.71 "Hg (Feb 20, 5:00 AM)
Average57 °F62%30.03 "Hg
* Reported Feb 15 1:00 AM — Mar 2 1:00 AM, Sidon, Weather by CustomWeather, © 2015

Note: Actual official high and low records may vary slightly from our data, if they occured in-between our weather recording intervals... More about our weather records

Advertising

Sidon weather history for previous 24 hours

 ConditionsComfort  
Time TempWeatherWind HumidityBarometerVisibility
1:00 AM
Mon, Mar 2
59 °FRain. Passing clouds.6 mph72%30.09 "Hg4 mi
12:00 AM59 °FPassing clouds.5 mph68%30.09 "HgN/A
11:00 PM
Sun, Mar 1
59 °FPassing clouds.3 mph63%30.09 "HgN/A
10:00 PM59 °FPassing clouds.3 mph68%30.09 "HgN/A
9:00 PM59 °FPassing clouds.5 mph68%30.09 "HgN/A
8:00 PM59 °FPassing clouds.8 mph72%30.09 "HgN/A
7:00 PM61 °FPassing clouds.6 mph72%30.09 "HgN/A
6:00 PM61 °FPartly cloudy.5 mph68%30.07 "HgN/A
5:00 PM63 °FBroken clouds.6 mph64%30.07 "HgN/A
4:00 PM63 °FBroken clouds.9 mph68%30.09 "HgN/A
3:00 PM63 °FBroken clouds.9 mph64%30.09 "HgN/A
2:00 PM64 °FPassing clouds.12 mph56%30.09 "Hg4 mi
1:00 PM64 °FPartly sunny.13 mph60%30.12 "Hg4 mi
12:00 PM63 °FPartly sunny.15 mph64%30.12 "Hg4 mi
11:00 AM64 °FPartly sunny.10 mph64%30.12 "Hg4 mi
10:00 AM63 °FDrizzle. Partly sunny.12 mph64%30.15 "Hg4 mi
9:00 AM63 °FFog.7 mph59%30.12 "Hg3 mi
8:00 AM61 °FScattered clouds.5 mph59%30.15 "Hg4 mi
7:00 AM57 °FPassing clouds.1 mph63%30.12 "Hg4 mi
6:00 AM57 °FHaze.5 mph63%30.12 "Hg5 mi
5:00 AM59 °FHaze.5 mph59%30.12 "Hg4 mi
4:00 AM59 °FClear.5 mph59%30.09 "Hg5 mi
3:00 AM59 °FClear.3 mph59%30.09 "Hg5 mi
2:00 AM59 °FClear.6 mph59%30.12 "Hg5 mi
Weather by CustomWeather, © 2015

See weather overviewHow to use our weather pages